Location: Newark
(48.6461°N, 4.3644°W)
Time: 21:07:58
(UTC+00:00)

S-56A Canister/Altair - Pass Details

Date: 19 January 2020
Orbit: 633 x 2499 km, 38.9° (Epoch: 22 February)

Event Time Altitude Azimuth Distance (km) Brightness Sun altitude
Rises 00:28:02 0° 245° (WSW) 2,965 - -61.8°
Reaches altitude 10° 00:30:40 10° 232° (SW) 2,010 - -61.8°
Maximum altitude 00:34:18 25° 176° (S) 1,300 - -61.8°
Drops below altitude 10° 00:38:12 10° 121° (ESE) 2,168 - -61.8°
Sets 00:41:09 0° 108° (ESE) 3,260 - -61.7°
